STARLINK-38376, 100630

Orbit data source: Space-Track

STARLINK-38376, 100630 is a payload satellite owned by SpaceX/Seattle (US) in LEO that was launched on Sun, 06 Sep 2026 UTC launched from the Air Force Western Test Range (AFWTR). Payload-class satellites include a variety of spacecraft equipped with specific instruments for various scientific and technological missions. These include communications satellites like Starlink; space stations such as the ISS; scientific satellites like the Hubble; Earth observation satellites from companies like Planet Labs, Umbra, and HawkEye 360; GPS; miniature CubeSats for education and research; and military/defense satellites.

Not visible in the next 10 days
Identifier
100630, 2026-204R
Orbit
LEO
Country
Flag of USUS
Related business
Manufacturer
SpaceX/Seattle
Mission
Operational spacecraft
Bus & Motor
STARLINK V2MO, Unknown motor
Mass
575 kg wet, ~530 kg dry
Launch date (UTC)
2026-09-06 (5 days ago)
Launch vehicle
Unknown
Launch site
Air Force Western Test Range (AFWTR)
Object type
Payload
Rocket body
Debris
Shape & HBR
BOX + PAN, 17.7 m
Radar Cross Section
RCS unknown

Expand to show TLE details & history
Last TLE update: 12 hours ago

TLE from 12 hours ago
0 STARLINK-38376
1 A0630U          26253.94280344  .00055587  52601-5  11166-3 0  9998
2 A0630  69.9976 265.1434 0007950 237.3160 122.7285 15.99804690   700
Epoch: 2026-09-10T22:37Z
TLE epoch observation values (Epoch: 2026-09-10T22:37:38.217Z)
Latitude
0.00002°
Longitude
-64.2391°
Altitude
280.355 km
Speed
7.738 km/s
True Right ascension
17h 40m 34s
True Declination
0° 00' 00"
Sunlit
Object was in daylight at epoch
Visualization orbit readout
Latitude
Unknown
Longitude
Unknown
Altitude
Unknown
Speed
Unknown
Apparent Right ascension
Unknown
Apparent Declination
Unknown
Sunlit
N/A
Visualization observer readout
Local Sidereal Time
02:29:41
Azimuth
Unknown
Elevation
Unknown
Doppler factor
Unknown
Orbital elements
Apogee altitude
278.104 km
Perigee altitude
267.529 km
Semi-major axis
6,650.954 km
Eccentricity
0.0008
Inclination
69.9976°
RAAN
265.1434°
Arg. of periapsis
237.316°
True anomaly
122.8051°
Mean anomaly
122.7285°
Eccentric anomaly
122.7668°
Mean motion
4.00145 °/min
Orbital period
89.97 mins
BSTAR
0.00011166
Loading maneuver chart data...
Computing Atmospheric mass density...
Loading historical data...
Loading historical data...
Loading historical data...
Loading historical data...
Loading historical data...
Loading historical data...
Loading historical data...

Documentation

Showing up to 5 results
|